Tracking 28792 objects as of 25-Apr-2024
HD Live streaming from Space Station
objects crossing your sky now

COSMOS 768

Track COSMOS 768 now!
10-day predictions
COSMOS 768 is classified as:


NORAD ID: 8292
Int'l Code: 1975-086H
Perigee: 1,478.1 km
Apogee: 1,497.9 km
Inclination: 74.0 °
Period: 115.6 minutes
Semi major axis: 7858 km
RCS: 0.6843 m2 (medium)
Launch date: September 17, 1975
Source: Commonwealth of Independent States (former USSR) (CIS)
Launch site: PLESETSK MISSILE AND SPACE COMPLEX (PKMTR)
Your satellite tracking list
Your tracking list is empty




NASA's NSSDC Master Catalog

Two Line Element Set (TLE):
1  8292U 75086H   24116.20630250 -.00000008  00000-0  50542-4 0  9998
2  8292  74.0100  67.9197 0012566  16.2221  93.5433 12.46097077211215
Source of the keplerian elements: AFSPC